www.pogodaiklimat.ru

Погода и климат >> Архив погоды >> Дания >> Мыс Kegnaes


ПОГОДА на Мысе Kegnaes

  • Прогноз погоды на Мысе Kegnaes
  • Монитор погоды на Мысе Kegnaes

АРХИВ ПОГОДЫ на Мысе Kegnaes

Время (UTC), дата Ветер
(напр.,м/с)
 
Видим.   Явления Облачность Т
(С)
Тd
(С)
f
(%)
Тe
(С)
Тes
(С)
Комфортность P
(гПа)
Po
(гПа)
Тmin
(С)
Tmax
(С)
R
(мм)
R24
(мм)
S
(см)
01 9.06 ЮЗ 11 40 км 1/1 1000 м
[]
+13.2 +9.1 76 +10 +10 1018.0 1015.8
02 9.06 ЮЗ 12 35 км 1/1 1020 м
[]
+13.2 +9.5 78 +10 +10 1018.4 1016.1
03 9.06 ЮЗ 11 35 км 1/1 720 м
[]
+13.1 +9.5 79 +10 +10 1018.6 1016.4
04 9.06 ЮЗ 11 30 км 4/4 750 м
[]
+12.9 +9.7 81 +9 +9 1019.3 1017.0
05 9.06 ЮЗ 8 35 км в посл. час морось {ливн. осадки, дождь} 6/6 240 м
[]
+12.5 +9.8 84 +9 +9 1020.3 1018.0
06 9.06 ЮЗ 8 12 км слаб. ливневой дождь 6/6 90 м
[]
+12.4 +10.5 88 +9 +10 1021.0 1018.7 +12.2 +15.5 0.3
07 9.06 ЮЗ 11 35 км в посл. час морось {ливн. осадки} 1/1 270 м
[]
+13.1 +9.9 81 +10 +10 1021.6 1019.4
08 9.06 ЮЗ 11 29 км слаб. ливневой дождь {морось} 1/1 270 м
[]
+13.1 +10.8 86 +10 +10 1022.3 1020.1
09 9.06 З 8
{15}
20 км слаб. ливневой дождь {морось} 1/1 240 м
[]
+13.7 +11.2 85 +11 +14 1022.8 1020.5 0.1
10 9.06 З 8 24 км {ливн. осадки} 1/1 1200 м
[]
+15.8 +11.0 73 +14 +16 1023.3 1021.0
11 9.06 З 7 35 км 1/0
[]
+15.9 +9.8 67 +14 +18 1023.3 1021.1
12 9.06 ЮЗ 7
{15}
28 км {ливн. осадки, морось} ясно +16.5 +10.4 67 +15 +19 1023.2 1021.0 0.0
13 9.06 З 5 40 км ясно +19.4 +10.9 58 +20 +29 1023.3 1021.0
14 9.06 З 4 40 км ясно +20.6 +10.2 51 +22 +31 комфорт 1023.4 1021.2
15 9.06 З 3 45 км ясно +20.0 +8.9 49 +22 +29 комфорт 1023.2 1021.0 0.2
16 9.06 З 2 45 км ясно +18.7 +9.5 55 +20 +26 1022.8 1020.5 0.1
17 9.06 З 1 45 км 1/1 1500 м
[]
+17.2 +9.4 60 +18 +21 1022.6 1020.4
18 9.06 В 2 45 км ясно +14.8 +11.5 81 +14 +16 1022.5 1020.2 +12.4 +20.6 0.1
19 9.06 ЮВ 3 45 км ясно +14.4 +11.7 84 +14 +14 1022.7 1020.4
20 9.06 ЮВ 2 50 км ясно +14.5 +12.0 85 +14 +14 1022.6 1020.4
21 9.06 В 2 45 км ясно +14.6 +11.4 81 +15 +15 1022.5 1020.2
22 9.06 СВ 3 35 км ясно +14.1 +11.3 83 +13 +13 1022.2 1020.0
23 9.06 СВ 4 40 км ясно +13.9 +11.4 85 +13 +13 1021.9 1019.7
00 10.06 В 4 50 км ясно +14.6 +12.1 85 +13 +13 1021.4 1019.1
01 10.06 В 5 35 км ясно +14.7 +12.4 86 +13 +13 1020.9 1018.7
02 10.06 СВ 5 45 км ясно +14.6 +11.5 82 +13 +13 1020.5 1018.3
03 10.06 СВ 5 40 км ясно +14.1 +11.1 82 +12 +12 1019.8 1017.6
04 10.06 СВ 6 27 км слаб. дождь 1/1 270 м
[]
+14.3 +11.2 82 +12 +13 1019.7 1017.4 0.1
05 10.06 СВ 6 35 км слаб. морось {дождь} ясно +14.1 +11.8 86 +12 +13 1019.2 1016.9 0.1
06 10.06 СВ 6 30 км в посл. час морось {ливн. осадки, дождь} ясно +14.2 +11.8 85 +12 +14 1018.5 1016.3 +13.7 +15.1 0.2
07 10.06 СВ 6 15 км слаб. ливневой дождь 9/9 240 м
[]
+13.8 +12.0 89 +12 +12 1018.6 1016.3 0.5
08 10.06 СВ 6 35 км слаб. ливневой дождь 1/1 300 м
[]
+13.9 +11.2 84 +12 +16 1018.5 1016.2 0.2
09 10.06 СВ 6 40 км в посл. час морось {ливн. осадки, дождь} ясно +14.3 +11.1 81 +12 +18 1018.0 1015.7 0.7
10 10.06 СВ 6 50 км в посл. час дождь {ливн. осадки} ясно +14.4 +10.7 78 +12 +18 1017.5 1015.2
11 10.06 СВ 7 35 км слаб. дождь 1/1 400 м
[]
+14.1 +10.9 81 +12 +16 1017.5 1015.3 0.1
12 10.06 СВ 8 35 км в посл. час дождь {ливн. осадки} ясно +14.2 +11.1 82 +12 +15 1016.8 1014.6 0.5
13 10.06 СВ 8 35 км в посл. час морось {ливн. осадки} 1/1 270 м
[]
+14.3 +11.5 83 +12 +15 1016.6 1014.3
14 10.06 СВ 7 35 км ясно +14.9 +12.1 83 +13 +16 1016.2 1013.9
15 10.06 СВ 8 29 км {ливн. осадки} 1/1 1500 м
[]
+15.1 +12.1 82 +13 +14 1015.7 1013.4 0.0
16 10.06 СВ 8 35 км 1/1 1140 м
[]
+15.8 +12.7 82 +14 +15 1015.1 1012.9
17 10.06 СВ 8 35 км 4/4 750 м
[]
+16.3 +12.4 78 +15 +15 1015.0 1012.8
18 10.06 СВ 8 40 км {ливн. осадки} 9/9 870 м
[]
+15.9 +11.8 77 +14 +14 1015.0 1012.7 +13.6 +16.3
19 10.06 СВ 9 40 км 6/6 720 м
[]
+15.6 +11.7 78 +14 +14 1014.5 1012.3
20 10.06 СВ 9 40 км 9/9 800 м
[]
+15.5 +11.9 79 +13 +13 1014.2 1011.9
21 10.06 СВ 8 25 км 9/9 800 м
[]
+15.3 +12.3 82 +13 +13 1013.8 1011.6
22 10.06 СВ 8 29 км 9/9 870 м
[]
+15.2 +12.4 83 +13 +13 1013.9 1011.6
23 10.06 СВ 8 29 км слаб. ливневой дождь 6/6 240 м
[]
+14.9 +11.8 82 +13 +13 1013.3 1011.0
00 11.06 СВ 8 30 км {ливн. осадки, дождь} 1/1 1020 м
[]
+14.8 +11.3 80 +13 +13 1012.8 1010.5 0.0
01 11.06 СВ 8 30 км слаб. морось {дождь} ясно +14.6 +11.7 83 +12 +12 1012.2 1009.9
02 11.06 СВ 6 18 км слаб. ливневой дождь {морось} 6/6 240 м
[]
+13.9 +12.1 89 +12 +12 1012.2 1010.0 0.2
03 11.06 СВ 6 25 км слаб. ливневой дождь 4/4 210 м
[]
+13.7 +12.2 91 +11 +11 1011.9 1009.6 0.4
04 11.06 СВ 6 12 км слаб. дождь 4/4 210 м
[]
+13.2 +12.4 95 +11 +11 1011.2 1009.0 0.8
05 11.06 СВ 7 23 км в посл. час дождь ясно +13.5 +12.5 94 +11 +11 1010.8 1008.5 0.5
06 11.06 СВ 8 21 км {ливн. осадки, дождь} 1/1 270 м
[]
+14.5 +13.1 91 +12 +13 1010.5 1008.2 +13.1 +15.9 1
07 11.06 В 7 21 км 10/10 210 м
[]
+14.9 +13.5 91 +13 +13 1010.9 1008.7
08 11.06 СВ 7 13 км 10/10 210 м
[]
+14.9 +13.7 93 +13 +13 1010.3 1008.1
09 11.06 СВ 7 14 км 10/10 210 м
[]
+15.1 +14.0 93 +13 +13 1010.6 1008.3
10 11.06 В 5 11 км 9/9 150 м
[]
+15.2 +14.5 96 +14 +15 1010.7 1008.4
11 11.06 СВ 4 4000 м слаб. ливневой дождь 9/9 150 м
[]
+15.1 +14.7 97 +14 +15 1010.4 1008.2 4
12 11.06 В 2 4100 м в посл. час дождь {ливн. осадки} 9/9 180 м
[]
+15.3 +15.0 98 +15 +17 1010.5 1008.3 4
13 11.06 ЮЗ 5 1800 м дымка 9/9 30 м
[]
+15.1 +14.8 98 +14 +14 1010.9 1008.7
14 11.06 Ю 4 2500 м дымка 9/9 30 м
[]
+14.9 +14.6 98 +14 +15 1011.4 1009.1
15 11.06 Ю 3 2100 м дымка ?/? +15.0 +14.8 99 +14 +14 1011.7 1009.5
16 11.06 ЮВ 2 2200 м дымка 6/6 60 м
[]
+15.3 +15.0 98 +15 +18 1011.8 1009.5
17 11.06 В 3 4500 м дымка ясно +15.4 +15.0 97 +15 +18 1011.9 1009.7
18 11.06 В 4 3200 м дымка ясно +15.1 +14.8 98 +14 +15 1012.3 1010.1 +14.4 +15.7
19 11.06 ЮВ 4 5000 м дымка 4/4 630 м
[]
+15.3 +15.0 98 +14 +14 1013.0 1010.8
20 11.06 Ю 3 3200 м дымка 6/6 420 м
[]
+15.3 +15.0 98 +15 +15 1013.6 1011.4
21 11.06 Ю 1 2200 м дымка 1/1 360 м
[]
+15.3 +15.0 98 +16 +16 1013.2 1011.0
22 11.06 СЗ 2 1500 м дымка 9/9 400 м
[]
+15.1 +14.8 98 +15 +15 1012.5 1010.3
23 11.06 СЗ 2 3000 м дымка 9/9 150 м
[]
+15.1 +14.9 99 +15 +15 1013.4 1011.2
00 12.06 СВ 3 3700 м дымка 9/9 90 м
[]
+15.2 +14.9 98 +15 +15 1013.7 1011.4
01 12.06 7000 м дымка 9/9 150 м
[]
+14.8 +14.2 96 1013.8 1011.5
02 12.06 В 3 2100 м слаб. дождь {морось} 9/9 30 м
[]
+15.1 +14.6 97 +14 +14 1013.5 1011.2 0.4
03 12.06 С 3 700 м слаб. ливневой дождь ?/? +15.2 +15.0 99 +14 +14 1011.5 1009.3 0.5
04 12.06 СВ 9 8000 м в посл. час дождь {ливн. осадки} 6/6 30 м
[]
+14.6 +14.4 99 +12 +12 1008.7 1006.4
05 12.06 СЗ 3 24 км в посл. час морось {ливн. осадки, дождь} 6/6 120 м
[]
+14.9 +14.7 99 +14 +15 1009.7 1007.5
06 12.06 Ю 2 19 км {ливн. осадки, дождь} 9/9 270 м
[]
+15.3 +14.8 97 +15 +16 1011.4 1009.2 +14.4 +15.6 0.0
07 12.06 СВ 2 40 км 9/9 210 м
[]
+15.7 +14.9 95 +16 +16 1011.4 1009.2
08 12.06 СВ 3 35 км 9/9 180 м
[]
+15.9 +15.0 94 +16 +16 1011.2 1009.0
09 12.06 СВ 4 13 км 9/9 120 м
[]
+15.5 +14.8 96 +14 +15 1011.2 1008.9
10 12.06 СВ 3 19 км 9/9 210 м
[]
+16.2 +15.1 93 +16 +17 1010.8 1008.6
11 12.06 В 5 13 км 9/9 150 м
[]
+15.6 +14.6 94 +14 +15 1010.6 1008.3
12 12.06 В 4 10 км 9/9 150 м
[]
+15.6 +14.9 96 +15 +16 1010.0 1007.8
13 12.06 СВ 8 5000 м дымка 9/9 270 м
[]
+16.2 +14.8 91 +15 +15 1009.1 1006.9
14 12.06 СВ 8 6000 м дымка 9/9 240 м
[]
+16.2 +14.9 92 +15 +15 1008.8 1006.6
15 12.06 СВ 6 5000 м дымка 9/9 150 м
[]
+15.6 +14.6 94 +14 +14 1008.3 1006.0
16 12.06 В 10 5000 м слаб. дождь {морось} 10/10 150 м
[]
+15.3 +14.5 95 +13 +13 1009.7 1007.4
17 12.06 СВ 8 3900 м в посл. час дождь {ливн. осадки} 4/4 180 м
[]
+15.0 +14.7 98 +13 +13 1007.9 1005.7 4
18 12.06 ЮВ 5 5000 м слаб. ливневой дождь 6/6 150 м
[]
+15.0 +14.7 98 +13 +14 1008.8 1006.6 +14.9 +17.0 6
19 12.06 В 4 3900 м дымка {ливн. осадки} 1/1 90 м
[]
+14.7 +14.5 99 +13 +14 1006.7 1004.5
20 12.06 Ю 10 7000 м дымка 10/10 90 м
[]
+14.8 +14.6 99 +12 +12 1008.8 1006.6
21 12.06 Ю 6 1900 м дымка {ливн. осадки} 10/10 30 м
[]
+15.0 +14.8 99 +13 +13 1008.4 1006.1 0.0
22 12.06 ЮЗ 5 1700 м в посл. час туман {дымка} 9/9 60 м
[]
+15.6 +15.5 99 +14 +14 1008.7 1006.5
23 12.06 З 7 8000 м дымка ясно +14.7 +13.8 94 +13 +13 1009.3 1007.1
00 13.06 ЮЗ 8 7000 м дымка {ливн. осадки, туман} ясно +14.7 +13.8 94 +12 +12 1009.4 1007.1
01 13.06 ЮЗ 7 6000 м дымка ясно +14.3 +13.5 95 +12 +12 1009.5 1007.3
02 13.06 ЮЗ 6 6000 м дымка ясно +13.9 +13.0 94 +12 +12 1010.0 1007.8
03 13.06 ЮЗ 7 7000 м дымка ясно +13.6 +12.7 94 +11 +11 1010.5 1008.2
04 13.06 ЮЗ 6 10 км ясно +13.2 +11.9 92 +11 +11 1011.0 1008.8
05 13.06 Ю 5 15 км ясно +13.4 +11.8 90 +11 +12 1011.3 1009.0
06 13.06 Ю 7 14 км {дымка} ясно +13.9 +12.1 89 +12 +13 1011.7 1009.5 +13.0 +15.9
07 13.06 Ю 6 11 км ясно +14.7 +12.9 89 +13 +15 1011.9 1009.6
08 13.06 Ю 7 14 км ясно +15.6 +13.2 86 +14 +16 1011.7 1009.5
09 13.06 ЮВ 6 14 км ясно +16.2 +13.8 86 +15 +20 1011.9 1009.7
10 13.06 ЮВ 7 27 км ясно +16.9 +14.0 83 +16 +20 1012.0 1009.8
11 13.06 Ю 9 35 км 1/1 1440 м
[]
+18.9 +12.0 64 +19 +21 1012.1 1009.9
12 13.06 Ю 9
{12}
35 км ясно +19.8 +11.1 57 +20 +22 1012.3 1010.1
13 13.06 ЮЗ 6 45 км 1/1 1500 м
[]
+19.8 +11.2 58 +21 +26 комфорт 1012.4 1010.2
14 13.06 ЮЗ 6 50 км 1/1 1500 м
[]
+19.3 +11.1 59 +20 +24 1012.5 1010.3 0.1
15 13.06 З 4 45 км ясно +20.5 +13.4 64 +23 +30 комфорт 1012.8 1010.6 0.3
16 13.06 З 3 50 км ясно +22.3 +11.8 51 +25 +30 комфорт 1012.7 1010.5
17 13.06 З 2 50 км ясно +20.3 +11.4 57 +23 +26 комфорт 1012.8 1010.6
18 13.06 В 4 45 км 1/0 2000 м
[]
+18.1 +13.0 72 +18 +19 1013.2 1011.0 +13.9 +22.9
19 13.06 ЮВ 6 50 км ясно +17.1 +12.7 75 +16 +16 1013.3 1011.1
20 13.06 ЮВ 5 50 км ясно +16.6 +13.8 84 +16 +16 1013.6 1011.4
21 13.06 В 3 30 км в посл. час дождь {ливн. осадки} 1/1 330 м
[]
+15.8 +14.3 91 +15 +15 1014.0 1011.7 1
22 13.06 В 3 50 км ясно +15.6 +14.1 91 +15 +15 1013.8 1011.6
23 13.06 В 3 13 км в посл. час дождь {ливн. осадки} ясно +14.7 +12.9 89 +14 +14 1014.7 1012.5 3
00 14.06 ЮВ 5
{12}
45 км {ливн. осадки, дождь} ясно +15.2 +13.1 87 +14 +14 1015.0 1012.8 3
01 14.06 Ю 5 50 км 1/0 2000 м
[]
+15.5 +13.2 86 +14 +14 1015.2 1012.9
02 14.06 Ю 5 50 км ясно +15.4 +13.2 87 +14 +14 1015.4 1013.1
03 14.06 Ю 3 40 км ясно +14.8 +13.0 89 +14 +14 1015.8 1013.5
04 14.06 Ю 4 45 км ясно +14.9 +12.5 86 +14 +14 1015.8 1013.6
05 14.06 Ю 3 40 км ясно +15.5 +13.8 90 +15 +17 1015.9 1013.7
06 14.06 ЮВ 5 35 км слаб. ливневой дождь 1/1 400 м
[]
+15.4 +14.1 92 +14 +16 1016.4 1014.2 +14.3 +18.1 0.0
07 14.06 ЮВ 5 35 км ясно +16.0 +14.0 88 +15 +18 1017.0 1014.8
08 14.06 ЮВ 6 40 км ясно +16.4 +13.7 84 +15 +20 1017.3 1015.0
09 14.06 ЮВ 6 29 км ясно +17.5 +14.1 80 +17 +22 1017.5 1015.3
10 14.06 В 4 29 км ясно +17.4 +14.6 84 +17 +28 1017.5 1015.2
11 14.06 В 6 35 км ясно +17.5 +14.7 84 +17 +24 1017.1 1014.9
12 14.06 В 7 35 км ясно +17.5 +14.7 84 +17 +21 1016.7 1014.5
13 14.06 В 8 35 км ясно +17.4 +14.5 83 +16 +19 1016.3 1014.1
14 14.06 В 9 30 км ясно +18.0 +14.4 79 +17 +18 1015.5 1013.3
15 14.06 ЮВ 10 8000 м дождь 4/4 150 м
[]
+17.3 +14.8 85 +16 +16 1015.2 1013.0 0.0
16 14.06 СВ 3 24 км в посл. час дождь {ливн. осадки} ясно +18.2 +15.7 85 +19 +24 1015.9 1013.6 0.4
17 14.06 СВ 5 27 км ясно +18.7 +14.6 77 +19 +21 1016.3 1014.0
18 14.06 В 5
{12}
22 км в посл. час морось {ливн. осадки, дождь} ясно +17.3 +14.5 84 +17 +17 1016.3 1014.0 +15.2 +19.1 0.4
19 14.06 СВ 4 25 км ясно +17.3 +14.6 84 +17 +17 1016.0 1013.8
20 14.06 СВ 5 30 км ясно +16.9 +14.9 88 +16 +16 1016.2 1014.0
21 14.06 СВ 6 40 км ясно +17.0 +15.2 89 +16 +16 1016.4 1014.2
22 14.06 В 6 30 км ясно +16.9 +15.4 91 +16 +16 1016.7 1014.5
23 14.06 СВ 6 23 км в посл. час дождь {ливн. осадки} ясно +16.5 +15.4 93 +15 +15 1015.6 1013.4
00 15.06 СВ 6 25 км в посл. час морось {ливн. осадки, дождь} ясно +16.4 +15.1 92 +15 +15 1015.3 1013.0 0.0
01 15.06 СВ 6 35 км ясно +16.5 +15.0 91 +15 +15 1014.5 1012.3
02 15.06 СВ 6 29 км ясно +16.1 +14.8 92 +15 +15 1013.7 1011.4
03 15.06 СВ 5 30 км ясно +16.1 +14.6 91 +15 +15 1012.7 1010.5
04 15.06 СВ 5 30 км ясно +16.3 +15.0 92 +15 +16 1012.9 1010.7
05 15.06 СВ 6 30 км ясно +16.5 +15.3 93 +15 +16 1012.3 1010.0
06 15.06 В 5 8000 м дождь {морось} 4/4 210 м
[]
+16.4 +15.3 93 +15 +17 1012.4 1010.2 +16.0 +17.5 0.8
07 15.06 СВ 6 12 км слаб. дождь {морось} 1/1 330 м
[]
+16.6 +15.7 94 +15 +18 1011.4 1009.2 1
08 15.06 В 8 10 км слаб. дождь 1/1 240 м
[]
+16.8 +16.0 95 +15 +17 1011.3 1009.1 0.7
09 15.06 В 17
{21}
7000 м слаб. дождь {морось} 1/1 270 м
[]
+16.9 +15.8 93 +14 +14 1007.1 1004.9 3
10 15.06 ЮЗ 2 10 км слаб. ливневой дождь ясно +16.8 +15.4 91 +17 +32 опасность
простуды
1010.3 1008.1 0.2
11 15.06 В 4 18 км слаб. ливневой дождь ясно +17.9 +14.8 82 +18 +30 опасность
простуды
1010.4 1008.1
12 15.06 В 9
{21}
25 км слаб. ливневой дождь 1/1 180 м
[]
+17.9 +13.8 77 +17 +18 1010.9 1008.7 0.7
13 15.06 В 9 26 км в посл. час дождь {ливн. осадки} 1/1 300 м
[]
+16.9 +14.1 84 +15 +16 1009.6 1007.4
14 15.06 В 6 13 км слаб. ливневой дождь 6/6 270 м
[]
+16.6 +13.6 82 +15 +17 1010.0 1007.8 0.2
15 15.06 ЮВ 9
{11}
4800 м ливневой дождь ?/? +15.8 +14.2 90 +14 +14 1010.7 1008.5 21
16 15.06 В 8 21 км в посл. час дождь {ливн. осадки} 9/9 400 м
[]
+15.8 +14.6 93 +14 +14 1010.9 1008.7 0.5
17 15.06 ЮВ 9 25 км 9/9 330 м
[]
+15.9 +14.6 92 +14 +14 1011.5 1009.3
18 15.06 Ю 7
{11}
18 км {ливн. осадки} 4/4 400 м
[]
+16.1 +15.1 94 +15 +15 1011.3 1009.1 +14.8 +18.0 0.5
19 15.06 З 7 15 км 6/6 400 м
[]
+16.5 +16.0 97 +15 +15 1010.8 1008.6
20 15.06 З 5 24 км 9/9 300 м
[]
+16.4 +15.6 95 +15 +15 1012.1 1009.8
21 15.06 З 7 13 км 9/9 210 м
[]
+15.6 +14.8 95 +14 +14 1013.4 1011.2
22 15.06 З 7 25 км 9/9 240 м
[]
+14.5 +13.6 94 +12 +12 1014.1 1011.9
23 15.06 З 5 40 км 9/9 300 м
[]
+14.3 +12.9 91 +13 +13 1015.0 1012.8

 

Местоположение метеостанции Мыс Kegnaes (Дания): широта 54.85 долгота 9.98 высота над уровнем моря 17 м.

В архиве по умолчанию представлена погода на Мысе Kegnaes за последнюю неделю. Архивные данные за месяц целиком и за предыдущие месяцы, начиная с января 2011 года, Вы можете получить, выбрав интересующий диапазон дат из раскрывающегося списка и нажав кнопку "Ввод!".


*Определитесь, кто Вы:
робот инопланетянин человек

Внимание! Время в таблицах - всемирное. Для получения местного времени необходимо прибавить поправку, которая равна 1 ч.

Смотрите также архив погоды в соседних городах и на ближайших метеорологических станциях:

Погода в Ольпенице (Германия) (20 км)
Погода в Глюксбурге (Германия) (31 км)
Погода в Тосинге (Дания) (42 км)
Погода в Киль маяке (Германия) (43 км)
Погода в Торае (Дания) (45 км)
Погода в Шлезвиге (Германия) (45 км)
Погода в Шлезвиг аэропорту (Германия) (52 км)
Погода в Киле (Германия) (53 км)
Погода в Арслеве (Дания) (59 км)
Погода в Скрыдструпе (Дания) (62 км)

Пояснения к столбцам:

Ветер - указаны скорость ветра в м/с - средняя за 10 мин, порывы в срок и между сроками (в фигурных скобках) и направление, откуда дует ветер: С - северный, СВ - северо-восточный, В - восточный, ЮВ - юго-восточный, Ю - южный, ЮЗ - юго-западный, З - западный, СЗ - северо-западный.
Видимость - горизонтальная дальность видимости в метрах или километрах. При видимости от 1 до 10 км при отсутствии осадков обычно наблюдается дымка, при ухудшении видимости до 1 км и менее - туман. В сухую погоду видимость может ухудшаться дымом, пылью или мглою.
Явления - указаны атмосферные явления, наблюдавшиеся в срок или в последний час перед сроком; фигурными скобками обозначены явления, наблюдавшиеся между сроками (за 1-3 часа до срока); квадратными скобками обозначены град или гололедные отложения с указанием их диаметра в мм.
Облачность - указаны через наклонную черту общая и нижняя облачность в баллах и высота нижней границы облаков в метрах; квадратными скобками обозначены формы облаков: Ci - перистые, Cs - перисто-слоистые, Cc - перисто-кучевые, Ac - высококучевые, As - высокослоистые, Sc - слоисто-кучевые, Ns - слоисто-дождевые, Cu - кучевые, Cb - кучево-дождевые. Подробнее классификацию облаков см. в Атласе облаков (PDF).
T - Температура воздуха - температура, измеренная на высоте 2 м над землей.
Td - Температура точки росы - температура, при понижении до которой содержащийся в воздухе водяной пар достигнет насыщения.
f - Относительная влажность воздуха - влажноcть воздуха, измеренная на высоте 2 м над землей.
Te - Эффективная температура - температура, которую ощущает одетый по сезону человек в тени. Характеристика душности погоды. При расчете учитывается влияние влажности воздуха и скорости ветра на теплоощущения человека.
Tes - Эффективная температура на солнце - температура, которую ощущает человек, с поправкой на солнечный нагрев. Характеристика знойности погоды. Зависит от высоты солнца над горизонтом, облачности и скорости ветра. Ночью, в пасмурную погоду, а также при ветре 12 м/с и более поправка равна нулю.
P - Атмосферное давление - приведенное к уровню моря атмосферное давление.
Po - Атмосферное давление - измеренное на уровне метеостанции атмосферное давление.
Tmin - Минимальная температура - минимум температуры воздуха на высоте 2 м над землей.
Tmax - Максимальная температура - максимум температуры воздуха на высоте 2 м над землей.
R - Количество осадков - Количество выпавших осадков за период времени, мм. При наведении курсора мыши на число - период времени, за который выпало указанное количество осадков.
R24 - Количество осадков - Количество выпавших осадков за 24 часа, мм.
S - Снежный покров - Высота снежного покрова, см. При наведении курсора мыши на число - состояние снежного покрова и степень покрытия местности в баллах.